Orangeburg, SC

9:21 AM EST on February 24, 2018 (GMT -0500)
Orangeburg Municipal

Weather History for KOGB - January, 2014

Change the Weather History Date:

Monday, January 13, 2014

  Actual Average Record
Temperature  
Mean Temperature 49 °F 46 °F  
Max Temperature 64 °F 56 °F 77 °F (2013)
Min Temperature 33 °F 35 °F 12 °F (1981)
Degree Days  
Heating Degree Days 16 19  
Month to date heating degree days 277 259  
Since 1 July heating degree days 1067 1163  
Cooling Degree Days 0 0  
Month to date cooling degree days 0 0  
Year to date cooling degree days 0 0  
Moisture  
Dew Point 40 °F    
Average Humidity 73    
Maximum Humidity 96    
Minimum Humidity 36    
Precipitation  
Precipitation 0.13 in 0.10 in 2.21 in (1975)
Month to date precipitation 1.57 1.59  
Year to date precipitation 1.57 1.59  
Sea Level Pressure  
Sea Level Pressure 30.11 in    
Wind  
Wind Speed 3 mph (South)    
Max Wind Speed 13 mph    
Max Gust Speed 17 mph    
Visibility 10 miles    
Events Rain    
T = Trace of Precipitation, MM = Missing Value Source: NWS Daily Summary

Daily Weather History Graph

Daily Weather History Graph

Search for Another Location

Airport or City:

Trip Planner

Search our weather history database for the weather conditions in past years. The results will help you decide how hot, cold, wet, or windy it might be!

Date:

Astronomy

Jan. 13, 2014 Rise Set
Actual Time 7:27 AM EST 5:36 PM EST
Civil Twilight 7:00 AM EST 6:03 PM EST
Nautical Twilight 6:30 AM EST 6:34 PM EST
Astronomical Twilight 6:00 AM EST 7:04 PM EST
Moon 3:49 PM EST (1/13) 5:16 AM EST (1/13)
Length of Visible Light 11h 03m
Length of Day
10h 08m
Waxing Gibbous, 95% of the Moon is Illuminated
Jan 13
Waxing Gibbous
Jan 15
Full
Jan 24
Last Quarter
Jan 30
New
Feb 6
First Quarter

Hourly Weather History & Observations

Time (EST) Temp. Dew Point Humidity Pressure Visibility Wind Dir Wind Speed Gust Speed Precip Events Conditions
12:53 AM 37.0 °F 34.0 °F 89% 30.20 in 10.0 mi Calm Calm - N/A   Clear
1:53 AM 36.0 °F 33.1 °F 89% 30.19 in 10.0 mi Calm Calm - N/A   Clear
2:53 AM 35.1 °F 32.0 °F 89% 30.20 in 10.0 mi Calm Calm - N/A   Clear
3:53 AM 35.1 °F 32.0 °F 89% 30.20 in 10.0 mi Calm Calm - N/A   Clear
4:53 AM 34.0 °F 32.0 °F 92% 30.20 in 10.0 mi Calm Calm - N/A   Clear
5:53 AM 33.1 °F 30.9 °F 92% 30.21 in 9.0 mi Calm Calm - N/A   Clear
6:53 AM 34.0 °F 32.0 °F 92% 30.20 in 10.0 mi Calm Calm - N/A   Clear
7:53 AM 34.0 °F 30.9 °F 89% 30.19 in 8.0 mi Calm Calm - N/A   Clear
8:53 AM 39.9 °F 37.0 °F 89% 30.19 in 7.0 mi Calm Calm - N/A   Clear
9:53 AM 44.1 °F 37.9 °F 79% 30.20 in 10.0 mi Calm Calm - N/A   Clear
10:53 AM 50.0 °F 41.0 °F 71% 30.18 in 10.0 mi SW 3.5 mph - N/A   Clear
11:53 AM 57.0 °F 37.0 °F 47% 30.15 in 10.0 mi South 6.9 mph - N/A   Clear
12:53 PM 62.1 °F 36.0 °F 38% 30.11 in 10.0 mi SSE 6.9 mph - N/A   Clear
1:53 PM 62.1 °F 39.0 °F 43% 30.07 in 10.0 mi South 8.1 mph - N/A   Clear
2:53 PM 64.0 °F 42.1 °F 45% 30.05 in 10.0 mi South 9.2 mph - N/A   Clear
3:53 PM 64.0 °F 45.0 °F 50% 30.02 in 10.0 mi South 5.8 mph - N/A   Clear
4:53 PM 63.0 °F 46.0 °F 54% 30.02 in 10.0 mi South 5.8 mph - N/A   Partly Cloudy
5:53 PM 60.1 °F 46.0 °F 60% 30.02 in 10.0 mi South 3.5 mph - N/A   Partly Cloudy
6:53 PM 57.9 °F 46.9 °F 67% 30.00 in 10.0 mi SSE 5.8 mph - N/A   Clear
7:53 PM 57.0 °F 46.9 °F 69% 30.03 in 10.0 mi SSW 4.6 mph - N/A   Clear
8:53 PM 54.0 °F 46.9 °F 77% 30.04 in 10.0 mi SW 3.5 mph - N/A   Clear
9:53 PM 55.9 °F 46.9 °F 72% 30.00 in 10.0 mi Calm Calm - N/A   Mostly Cloudy
10:53 PM 53.1 °F 48.9 °F 86% 30.02 in 6.0 mi SSW 4.6 mph - 0.05 in Rain Rain
11:53 PM 53.1 °F 50.0 °F 89% 29.92 in 7.0 mi ESE 4.6 mph - 0.07 in Rain Light Rain